Location: Carrières
(48.9495°N, 2.0407°E)
Time: 13:32:58
(UTC+00:00)

deb Kosmos-2227 - Pass Details

Date: 30 May 2025
Orbit: 823 x 993 km, 71.2° (Epoch: 15 June)

Event Time Altitude Azimuth Distance (km) Brightness Sun altitude
Exits shadow 01:07:18 - 141° (SE) 3,338 ? -17.2°
Reaches altitude 10° 01:10:12 10° 121° (ESE) 2,706 ? -17.0°
Maximum altitude 01:13:06 14° 93° (E) 2,470 ? -16.8°
Drops below altitude 10° 01:16:03 10° 66° (ENE) 2,748 ? -16.7°
Sets 01:20:04 0° 42° (NE) 3,715 ? -16.4°
